Погода во Флорианополисе

Бразилия     27°34′52″S   48°37′05″W
темп.,
°C
ветер,
м/с
пор.,
м/с
влажн.,
%
обл.,
%
осадки,
мм/ч
давл.,
гПа
погр.,
м
26 февраля, пт
пт2600:00+23ююв3671100 0.0 1015673
03:00+22ю357285 0.0 1014426
06:00+23ю367346 0.0 1014514
09:00+25ю466746 0.0 10161098
12:00+26ююв566026 0.0 10161233
15:00+27ююв576013 0.0 10151179
18:00+25ююв587114 0.1 10151028
21:00+23ююв488330 0.9 1017626
27 февраля, сб
сб2700:00+23ююв478432 0.5 1017525
03:00+23ююв378645 1.4 1016502
06:00+23юв378849 2.4 1016543
09:00+24юв478436 6.9 1018744
12:00+25юв698311 5.6 1018971
15:00+25юв6108211 10.3 10161023
18:00+23юв6118526 3.9 1016876
21:00+23юв7118644 7.9 1017903
28 февраля, вс
вс2800:00+24юв6108354 1.6 1017892
03:00+23юв478745 4.9 1015555
06:00+22юв239025 3.4 1015232
09:00+24ююв128738 11.1 1016238
12:00+25юв238075 6.8 1015583
15:00+25юв348058 11.4 1014628
18:00+25ююв248088 1.3 1013436
21:00+23ююз358394 1.6 1014314
1 марта, пн
пн100:00+22зюз1287100 0.4 1014161
03:00+22сз2389100 0.8 1012163
06:00+21з129137 0.0 1013100
09:00+25сз127323 0.0 1013422
12:00+28св336622 0.0 1012761
15:00+27св446713 0.7 1010626
18:00+26св247643 0.4 1010498
21:00+24с238772 4.4 1012192
2 марта, вт
вт200:00+23с4793100 3.8 1013516
03:00+23ссз4890100 4.4 1011526
06:00+22ссз249062 0.3 1011330
09:00+25сз377742 0.6 1013639
12:00+28ссв567024 0.1 1012727
15:00+27ссв467859 1.4 1010633
18:00+26ссв3584100 0.6 1010411
21:00+25ссв2588100 0.9 1012258